Clarion, IA

4:00 PM CDT on March 23, 2017 (GMT -0500)
Clarion Municipal

Weather History for KCAV - July, 2013

Change the Weather History Date:

Friday, July 19, 2013

  Actual Average Record
Temperature  
Mean Temperature 76 °F -  
Max Temperature 89 °F 85 °F 96 °F (1974)
Min Temperature 62 °F 63 °F 52 °F (1949)
Cooling Degree Days 12    
Growing Degree Days 26 (Base 50)    
Moisture  
Dew Point 65 °F    
Average Humidity 63    
Maximum Humidity 88    
Minimum Humidity 38    
Precipitation  
Precipitation 0.05 in - - ()
Sea Level Pressure  
Sea Level Pressure 29.89 in    
Wind  
Wind Speed 10 mph (WNW)    
Max Wind Speed 17 mph    
Max Gust Speed 24 mph    
Visibility 10 miles    
Events Rain    
Averages and records for this station are not official NWS values.
T = Trace of Precipitation, MM = Missing Value Source: NWS Daily Summary

Daily Weather History Graph

Daily Weather History Graph

Search for Another Location

Airport or City:

Trip Planner

Search our weather history database for the weather conditions in past years. The results will help you decide how hot, cold, wet, or windy it might be!

Date:

Astronomy

Jul. 19, 2013 Rise Set
Actual Time 5:54 AM CDT 8:48 PM CDT
Civil Twilight 5:20 AM CDT 9:21 PM CDT
Nautical Twilight 4:38 AM CDT 10:03 PM CDT
Astronomical Twilight 3:48 AM CDT 10:52 PM CDT
Moon 5:51 PM CDT (7/19) 2:36 AM CDT (7/19)
Length of Visible Light 16h 00m
Length of Day
14h 54m
Waxing Gibbous, 87% of the Moon is Illuminated
Jul 19
Waxing Gibbous
Jul 22
Full
Jul 29
Last Quarter
Aug 6
New
Aug 14
First Quarter

Hourly Weather History & Observations

Time (CDT) Temp. Heat Index Dew Point Humidity Pressure Visibility Wind Dir Wind Speed Gust Speed Precip Events Conditions
12:15 AM 77.0 °F - 66.2 °F 69% 29.92 in 10.0 mi SSW 9.2 mph - N/A   Clear
12:35 AM 77.0 °F - 66.2 °F 69% 29.92 in 10.0 mi SSW 8.1 mph - N/A   Clear
12:55 AM 77.0 °F - 66.2 °F 69% 29.91 in 10.0 mi SSW 9.2 mph - N/A   Clear
1:15 AM 78.8 °F - 66.2 °F 65% 29.91 in 10.0 mi SW 9.2 mph - N/A   Clear
1:35 AM 78.8 °F - 66.2 °F 65% 29.90 in 10.0 mi SW 11.5 mph - N/A   Clear
1:55 AM 78.8 °F - 66.2 °F 65% 29.89 in 10.0 mi SW 12.7 mph - N/A   Clear
2:15 AM 78.8 °F - 66.2 °F 65% 29.89 in 10.0 mi SW 11.5 mph - N/A   Clear
2:35 AM 77.0 °F - 66.2 °F 69% 29.89 in 10.0 mi SW 10.4 mph - N/A   Clear
2:55 AM 77.0 °F - 66.2 °F 69% 29.88 in 10.0 mi SW 11.5 mph - N/A   Clear
3:15 AM 77.0 °F - 66.2 °F 69% 29.87 in 10.0 mi SW 11.5 mph - N/A   Clear
3:35 AM 77.0 °F - 66.2 °F 69% 29.86 in - SW 12.7 mph - N/A   Clear
3:55 AM 77.0 °F - 66.2 °F 69% 29.85 in 10.0 mi SW 12.7 mph - N/A   Clear
4:15 AM 77.0 °F - 66.2 °F 69% 29.84 in 10.0 mi SW 12.7 mph 18.4 mph N/A   Clear
4:35 AM 77.0 °F - 66.2 °F 69% 29.84 in 10.0 mi SW 10.4 mph 16.1 mph N/A   Clear
4:55 AM 77.0 °F - 66.2 °F 69% 29.84 in 10.0 mi SW 10.4 mph - N/A   Clear
5:15 AM 77.0 °F - 66.2 °F 69% 29.85 in 10.0 mi SW 10.4 mph - N/A   Clear
5:35 AM 75.2 °F - 66.2 °F 73% 29.86 in 10.0 mi SSW 8.1 mph - N/A   Scattered Clouds
5:55 AM 75.2 °F - 66.2 °F 73% 29.86 in 10.0 mi SSW 8.1 mph - N/A   Mostly Cloudy
6:15 AM 75.2 °F - 66.2 °F 73% 29.89 in 9.0 mi NW 9.2 mph - N/A   Overcast
6:35 AM 75.2 °F - 68.0 °F 78% 29.89 in 3.0 mi WSW 9.2 mph 20.7 mph N/A Rain Rain
6:55 AM 73.4 °F - 68.0 °F 83% 29.89 in 4.0 mi WNW 4.6 mph 13.8 mph 0.05 in   Light Drizzle
7:15 AM 73.4 °F - 68.0 °F 83% 29.89 in 10.0 mi SW 4.6 mph - N/A   Scattered Clouds
7:35 AM 75.2 °F - 69.8 °F 83% 29.89 in 10.0 mi WSW 5.8 mph - N/A   Scattered Clouds
7:55 AM 75.2 °F - 69.8 °F 83% 29.89 in 10.0 mi WSW 6.9 mph - N/A   Partly Cloudy
8:15 AM 77.0 °F - 69.8 °F 78% 29.89 in 10.0 mi WSW 8.1 mph - N/A   Clear
8:35 AM 78.8 °F - 69.8 °F 74% 29.89 in 10.0 mi West 8.1 mph - N/A   Clear
8:55 AM 78.8 °F - 69.8 °F 74% 29.89 in 10.0 mi West 9.2 mph - N/A   Clear
9:15 AM 80.6 °F 83.9 °F 69.8 °F 70% 29.89 in 10.0 mi West 11.5 mph - N/A   Clear
9:35 AM 80.6 °F 83.2 °F 68.0 °F 65% 29.90 in 10.0 mi West 12.7 mph - N/A   Clear
9:55 AM 80.6 °F 83.9 °F 69.8 °F 70% 29.89 in 10.0 mi West 9.2 mph - N/A   Clear
10:15 AM 80.6 °F 83.9 °F 69.8 °F 70% 29.89 in 10.0 mi West 8.1 mph - N/A   Clear
10:35 AM 84.2 °F 88.4 °F 69.8 °F 62% 29.89 in 10.0 mi West 9.2 mph - N/A   Clear
10:55 AM 84.2 °F 89.6 °F 71.6 °F 66% 29.89 in 10.0 mi West 8.1 mph - N/A   Clear
11:15 AM 84.2 °F 89.6 °F 71.6 °F 66% 29.89 in 10.0 mi WSW 8.1 mph - N/A   Clear
11:35 AM 86.0 °F 90.4 °F 69.8 °F 58% 29.89 in 10.0 mi WNW 8.1 mph - N/A   Clear
11:55 AM 86.0 °F 90.4 °F 69.8 °F 58% 29.89 in 10.0 mi West 8.1 mph - N/A   Clear
12:15 PM 87.8 °F 92.6 °F 69.8 °F 55% 29.89 in 10.0 mi WSW 5.8 mph - N/A   Clear
12:35 PM 87.8 °F 91.4 °F 68.0 °F 52% 29.88 in 10.0 mi NW 10.4 mph - N/A   Clear
12:55 PM 89.6 °F 93.4 °F 68.0 °F 49% 29.88 in 10.0 mi West 9.2 mph - N/A   Clear
1:15 PM 89.6 °F 93.4 °F 68.0 °F 49% 29.89 in 10.0 mi WNW 11.5 mph 17.3 mph N/A   Partly Cloudy
1:35 PM 89.6 °F 91.1 °F 64.4 °F 43% 29.89 in 10.0 mi NW 12.7 mph 18.4 mph N/A   Partly Cloudy
1:55 PM 89.6 °F 90.1 °F 62.6 °F 40% 29.89 in 10.0 mi NW 13.8 mph - N/A   Clear
2:15 PM 89.6 °F 91.1 °F 64.4 °F 43% 29.89 in 10.0 mi NW 13.8 mph - N/A   Clear
2:35 PM 87.8 °F 91.4 °F 68.0 °F 52% 29.89 in 10.0 mi North 13.8 mph 23.0 mph N/A   Partly Cloudy
2:55 PM 87.8 °F 90.4 °F 66.2 °F 49% 29.89 in 10.0 mi NNW 16.1 mph - N/A   Partly Cloudy
3:15 PM 87.8 °F 88.5 °F 62.6 °F 43% 29.89 in 10.0 mi NNW 17.3 mph 23.0 mph N/A   Clear
3:35 PM 87.8 °F 87.1 °F 59.0 °F 38% 29.89 in 10.0 mi NNW 13.8 mph 24.2 mph N/A   Clear
3:55 PM 87.8 °F 87.1 °F 59.0 °F 38% 29.89 in 10.0 mi NW 15.0 mph 21.9 mph N/A   Clear
4:15 PM 87.8 °F 87.1 °F 59.0 °F 38% 29.89 in 10.0 mi NNW 15.0 mph 20.7 mph N/A   Clear
4:35 PM 87.8 °F 87.6 °F 60.8 °F 40% 29.89 in 10.0 mi NNW 12.7 mph 21.9 mph N/A   Clear
4:55 PM 86.0 °F 86.6 °F 62.6 °F 45% 29.89 in 10.0 mi NNW 13.8 mph - N/A   Clear
5:15 PM 86.0 °F 87.3 °F 64.4 °F 48% 29.89 in 10.0 mi North 12.7 mph 18.4 mph N/A   Clear
5:35 PM 86.0 °F 87.3 °F 64.4 °F 48% 29.89 in 10.0 mi North 10.4 mph 17.3 mph N/A   Clear
5:55 PM 86.0 °F 86.6 °F 62.6 °F 45% 29.88 in 10.0 mi NNW 15.0 mph - N/A   Clear
6:15 PM 84.2 °F 83.8 °F 59.0 °F 42% 29.88 in 10.0 mi NNW 11.5 mph 17.3 mph N/A   Clear
6:35 PM 84.2 °F 84.4 °F 60.8 °F 45% 29.88 in 10.0 mi NNW 11.5 mph 17.3 mph N/A   Clear
6:55 PM 82.4 °F 83.4 °F 62.6 °F 51% 29.88 in 10.0 mi NNW 11.5 mph - N/A   Clear
7:15 PM 82.4 °F 83.4 °F 62.6 °F 51% 29.89 in 10.0 mi North 8.1 mph 15.0 mph N/A   Clear
7:35 PM 80.6 °F 81.5 °F 60.8 °F 51% 29.89 in 10.0 mi North 5.8 mph 11.5 mph N/A   Clear
7:55 PM 78.8 °F - 60.8 °F 54% 29.89 in 10.0 mi North 6.9 mph - N/A   Clear
8:15 PM 77.0 °F - 60.8 °F 57% 29.90 in 10.0 mi North 4.6 mph - N/A   Clear
8:35 PM 75.2 °F - 60.8 °F 61% 29.90 in 10.0 mi North 3.5 mph - N/A   Clear
8:55 PM 71.6 °F - 60.8 °F 69% 29.90 in 10.0 mi North 5.8 mph - N/A   Clear
9:15 PM 71.6 °F - 60.8 °F 69% 29.91 in 10.0 mi North 3.5 mph - N/A   Clear
9:35 PM 69.8 °F - 60.8 °F 73% 29.91 in 10.0 mi North 4.6 mph - N/A   Clear
9:55 PM 69.8 °F - 60.8 °F 73% 29.92 in 10.0 mi North 4.6 mph - N/A   Clear
10:15 PM 68.0 °F - 60.8 °F 78% 29.93 in 10.0 mi North 5.8 mph - N/A   Clear
10:35 PM 66.2 °F - 60.8 °F 83% 29.93 in 10.0 mi North 5.8 mph - N/A   Clear
10:55 PM 64.4 °F - 60.8 °F 88% 29.93 in 10.0 mi North 3.5 mph - N/A   Clear
11:15 PM 64.4 °F - 60.8 °F 88% 29.94 in 10.0 mi North 3.5 mph - N/A   Clear
11:35 PM 64.4 °F - 59.0 °F 83% 29.94 in 10.0 mi Calm Calm - N/A   Clear
11:55 PM 62.6 °F - 59.0 °F 88% 29.95 in 10.0 mi Calm Calm - N/A   Clear